Hourly Data Report for July 25, 2021

TORONTO CITY
ONTARIO
Current Station Operator: ECCC - MSC

43°40'00.000" N
79°24'00.000" W
112.50 m
6158355
71508
XTO

Download Data

Hourly Data (July 2021)
Hourly Data Report for July 25, 2021
TIME
LST
Temp Definition
°C
Dew Point Definition
°C
Rel Hum Definition
%
Precip. Amount Definition
mm

Wind Dir Definition
10's deg

Wind Spd Definition
km/h
Visibility Definition
km
Stn Press Definition
kPa
Hmdx Definition


Wind Chill Definition


Weather Definition


00:00 21.2 20.3 94 3.6       99.38 29   LegendNANA
01:00 21.1 20.0 94 0.0       99.45 29   LegendNANA
02:00 19.9 19.2 96 0.0       99.50     LegendNANA
03:00 19.0 18.2 95 0.0       99.50     LegendNANA
04:00 18.4 17.8 96 0.0       99.50     LegendNANA
05:00 18.1 17.6 97 0.0       99.57     LegendNANA
06:00 18.4 18.0 97 0.0       99.64     LegendNANA
07:00 19.8 19.2 97 0.0       99.68     LegendNANA
08:00 21.3 19.6 90 0.0       99.74 29   LegendNANA
09:00 22.6 19.6 83 0.0       99.73 30   LegendNANA
10:00 23.8 20.2 80 0.0       99.74 32   LegendNANA
11:00 24.9 19.7 73 0.0       99.76 32   LegendNANA
12:00 27.0 20.6 68 0.0       99.73 35   LegendNANA
13:00 28.6 20.2 60 0.0       99.71 36   LegendNANA
14:00 26.8 19.4 64 0.0       99.69 34   LegendNANA
15:00 30.1 16.0 43 0.0       99.65 35   LegendNANA
16:00 29.9 15.3 41 0.0       99.63 34   LegendNANA
17:00 29.2 14.4 41 0.0       99.64 33   LegendNANA
18:00 29.0 12.6 37 0.0       99.65 32   LegendNANA
19:00 27.8 13.6 42 0.0       99.70 31   LegendNANA
20:00 26.5 11.9 40 0.0       99.77 29   LegendNANA
21:00 24.0 12.6 49 0.0       99.82 27   LegendNANA
22:00 22.2 13.3 57 0.0       99.86 25   LegendNANA
23:00 21.2 14.5 66 0.0       99.89 25   LegendNANA

Notes on Data Quality.

Legend

  • E = Estimated
  • M = Missing
  • NA = Not Available*
  • [empty] = Indicates an unobserved value
Date modified: